Regional Weather Roundup
Issued by NWS Northern Indiana

Home | Current Version | Previous Version | Graphics & Text | Print | Product List | Glossary Off
Versions: 1 2 3 4 5 6 7 8 9 10 11 12 13 14 15 16 17 18 19 20 21 22 23 24 25 26 27 28 29 30 31 32 33 34 35 36 37 38 39 40 41 42 43 44 45 46 47 48 49 50

000
ASUS43 KIWX 221810
RWRIWX

KIWX WEATHER ROUNDUP
NATIONAL WEATHER SERVICE NORTHERN INDIANA
200 PM EDT TUE JUL 22 2014

NOTE: "FAIR" INDICATES FEW OR NO CLOUDS BELOW 12,000 FEET WITH NO
SIGNIFICANT WEATHER AND/OR OBSTRUCTIONS TO VISIBILITY.

* THESE STATIONS ARE NOT UNDER NWS QUALITY CONTROL. THEY ALSO MAY NOT
  REPORT WEATHER SUCH AS PRECIPITATION OR FOG.

INZ001>027-221900-
NORTHERN INDIANA

CITY           SKY/WX    TMP DP  RH WIND       PRES   REMARKS
GARY*          PTSUNNY   86  68  54 SW12G23   30.01F
VALPARAISO     SUNNY     84  67  56 SW14      30.04F
6HR MIN TEMP:  67; 6HR MAX TEMP:  84;

MICHIGAN CITY* SUNNY     82  66  57 S10G16    30.03F
LAPORTE*       MOSUNNY   83  67  58 SW12      30.04F
6HR MIN TEMP:  66; 6HR MAX TEMP:  83;

KNOX*          SUNNY     83  66  55 SW8G17    30.04S
6HR MIN TEMP:  44; 6HR MAX TEMP:  86;

SOUTH BEND     MOSUNNY   86  67  52 SW12      30.04F
6HR MIN TEMP:  70; 6HR MAX TEMP:  86;

GOSHEN         MOSUNNY   86  67  52 SW14      30.05S
6HR MIN TEMP:  69; 6HR MAX TEMP:  87;

MONTICELLO*    MOSUNNY   83  69  64 SW12      30.05F
6HR MIN TEMP:  68; 6HR MAX TEMP:  83;

LOGANSPORT*    SUNNY     86  64  48 SW13      30.08S
ROCHESTER*     SUNNY     88  64  45 SW12      30.07S
WARSAW*        MOSUNNY   86  66  51 W8        30.06S
ANGOLA*        MOSUNNY   88  66  48 SW13      30.05S
FORT WAYNE     MOSUNNY   87  65  47 SW14G21   30.06F
6HR MIN TEMP:  67; 6HR MAX TEMP:  87;

HUNTINGTON*    PTSUNNY   85  67  53 SW8       30.06S
6HR MIN TEMP:  68; 6HR MAX TEMP:  86;

PERU/GRISSOM   MOSUNNY   86  70  57 W16       30.07F
6HR MIN TEMP:  68; 6HR MAX TEMP:  86;

MARION*        MOSUNNY   84  65  53 W7        30.08S
6HR MIN TEMP:  32; 6HR MAX TEMP:  89;


$$
INZ028>050-221900-
CENTRAL INDIANA

CITY           SKY/WX    TMP DP  RH WIND       PRES   REMARKS
LAFAYETTE      SUNNY     84  68  58 SW9       30.05F
6HR MIN TEMP:  67; 6HR MAX TEMP:  84;

KOKOMO*        MOSUNNY   88  68  51 SW9       30.07S
6HR MIN TEMP:  66; 6HR MAX TEMP:  88;

MUNCIE*        MOSUNNY   85  63  47 W10       30.08S
6HR MIN TEMP:  70; 6HR MAX TEMP:  86;

INDIANAPOLIS   MOSUNNY   85  64  49 SW9       30.07F
6HR MIN TEMP:  71; 6HR MAX TEMP:  86;


$$
MIZ043>046-050>051-056>058-064>065-071>073-077>080-221900-
SOUTHWEST LOWER MICHIGAN

CITY           SKY/WX    TMP DP  RH WIND       PRES   REMARKS
BATTLE CREEK   SUNNY     86  66  51 SW15G23   30.04F
6HR MIN TEMP:  69; 6HR MAX TEMP:  86;

BENTON HARBOR  SUNNY     83  67  58 SW13      30.02F
6HR MIN TEMP:  68; 6HR MAX TEMP:  83;

COLDWATER*     MOSUNNY   85  67  53 SW12G21   30.05S
6HR MIN TEMP:  70; 6HR MAX TEMP:  85;

HILLSDALE*     SUNNY     85  65  51 SW12      30.05F
6HR MIN TEMP:  69; 6HR MAX TEMP:  85;

HOLLAND        SUNNY     86  67  52 SW16G25   30.02F
6HR MIN TEMP:  69; 6HR MAX TEMP:  86;

GRAND RAPIDS   MOSUNNY   86  69  56 W18       30.02S
6HR MIN TEMP:  70; 6HR MAX TEMP:  86;

KALAMAZOO      MOSUNNY   85  67  54 S15       30.04F
6HR MIN TEMP:  69; 6HR MAX TEMP:  86;

STURGIS*       SUNNY     82  70  65 SW14G21   30.05S
THREE RIVERS*  FAIR      84  70  62 SW9       30.04F
6HR MIN TEMP:  69; 6HR MAX TEMP:  84;


$$
OHZ001>008-015>018-024>025-221900-
NORTHWEST OHIO

CITY           SKY/WX    TMP DP  RH WIND       PRES   REMARKS
WAUSEON*         N/A     88  66  48 SW14G21   30.04F
DEFIANCE       SUNNY     88  64  44 S10G18    30.04F
6HR MIN TEMP:  68; 6HR MAX TEMP:  89;

FINDLAY        MOSUNNY   88  66  48 S10       30.04F
6HR MIN TEMP:  69; 6HR MAX TEMP:  89;

TOLEDO EXPRESS MOSUNNY   88  64  44 S12G18    30.04F
6HR MIN TEMP:  68; 6HR MAX TEMP:  88;

TOLEDO METCALF MOSUNNY   89  63  41 S13G21    30.05F
6HR MIN TEMP:  70; 6HR MAX TEMP:  89;

LIMA           SUNNY     87  67  51 SW12G20   30.07F
6HR MIN TEMP:  71; 6HR MAX TEMP:  88;


$$
&&


USA.gov is the U.S. government's official web portal to all federal, state and local government web resources and services.